Location: Little Canfield
(51.8500°N, 0.3000°E)
Time: 04:44:53
(UTC+00:00)

Daily predictions for brighter satellites

Satellite Brightness Start Highest point End
(mag) Time Altitude Azimuth Time Altitude Azimuth Time Altitude Azimuth
Cosmos 2333 Rocket 4.5 00:01:44 10° W 00:06:16 23° NW 00:10:48 10° NNE
Cosmos 2219 Rocket 4.4 00:03:46 10° W 00:08:20 24° NW 00:12:56 10° NNE
ATLAS CENTAUR R/B 3.8 00:07:30 11° SW 00:13:08 77° SE 00:28:56 10° ENE
Cosmos 1825 3.9 00:13:02 15° SE 00:15:09 23° E 00:18:11 10° NE
Cosmos 1812 Rocket 4.0 00:12:48 10° NNW 00:17:02 50° W 00:19:25 24° SSW
Cosmos 990 Rocket 4.0 00:13:17 10° NNW 00:18:32 80° ENE 00:22:38 16° SSE
Cosmos 1408 3.3 00:19:18 24° SSE 00:21:07 43° E 00:24:39 10° NNE
Cosmos 1656 Rocket 4.1 00:18:24 10° NNW 00:24:06 64° NE 00:29:43 10° SE
SL-16 R/B 2.2 00:19:56 18° SSW 00:24:13 88° WNW 00:29:56 10° NNE
Cosmos 2221 3.9 00:20:42 10° N 00:24:38 33° ENE 00:28:23 11° SE
Cosmos 405 Rocket 3.8 00:23:36 19° SE 00:25:31 32° E 00:28:50 10° NNE
X-37B 2.9 00:28:47 12° SE 00:28:47 12° SE 00:29:14 10° ESE
USA 229 DEB 4.0 00:22:35 21° S 00:26:46 49° ESE 00:33:21 10° NE
USA 229 4.0 00:22:43 21° S 00:26:53 49° ESE 00:33:27 10° NE
Cosmos 2058 4.5 00:24:22 14° SE 00:26:59 26° E 00:30:24 10° NNE
Cosmos 2237 Rocket 3.4 00:22:09 10° WSW 00:27:24 39° NW 00:32:43 10° NNE
Cosmos 1898 Rocket 3.5 00:26:33 10° NNW 00:31:51 82° ENE 00:36:11 15° SSE
Cosmos 1937 Rocket 3.9 00:26:47 10° NNW 00:32:07 64° ENE 00:37:19 10° SE
Cosmos 2369 Rocket 2.2 00:28:30 10° NNW 00:34:16 80° WSW 00:38:58 16° SSE
NOSS 3-1 (C) 3.3 00:31:11 18° SSW 00:35:19 75° SE 00:41:48 10° NE
ATLAS 3B R/B 4.3 00:30:10 10° W 00:36:15 35° NNW 00:42:35 10° NE
SJ 16-02 2.4 00:34:06 10° NW 00:38:00 32° WSW 00:40:01 21° SSW
FALCON 9 DEB 3.2 00:35:15 10° W 00:38:23 68° N 00:41:31 10° E
YAOGAN 11 4.4 00:35:34 16° SSE 00:39:00 67° ENE 00:43:30 10° N
Cosmos 1356 3.5 00:37:29 28° S 00:39:05 63° E 00:42:28 10° NNE
GP-B 3.8 00:34:54 10° N 00:39:07 43° W 00:41:51 20° SW
CREW DRAGON DEMO-1 DEB 4.0 00:40:05 21° ESE 00:40:05 21° ESE 00:41:23 10° E
NOSS 2-3 (E) 3.6 00:42:32 22° SSW 00:45:15 72° SE 00:50:18 10° NE
USA 215 3.4 00:39:39 10° ENE 00:46:12 78° NNW 00:52:44 10° WSW
NOSS 3-1 (A) 3.5 00:42:41 21° SSW 00:46:20 57° SE 00:52:36 10° NE
Cosmos 2263 4.2 00:42:12 10° NNW 00:47:56 83° WSW 00:53:07 12° SSE
Cosmos 1825 Rocket 3.7 00:45:41 23° SSW 00:48:28 73° WNW 00:52:56 10° N
ATLAS 5 CENTAUR R/B 3.7 00:48:33 10° SE 00:49:56 12° ESE 00:51:22 10° E
CZ-4 R/B 4.3 00:45:50 10° NNE 00:50:23 51° E 00:53:33 19° S
Cosmos 1932 4.4 00:47:01 10° NW 00:53:15 73° SW 00:59:25 10° SSE
Meteor 2-2 Rocket 4.4 00:48:52 10° NNW 00:54:57 84° ENE 01:00:06 15° SSE
FALCON 9 DEB 3.0 00:52:23 10° WNW 00:55:29 75° N 00:58:35 10° E
CZ-3B R/B 3.3 00:43:37 10° W 00:56:20 67° N 00:59:54 10° E
Cosmos 1606 3.6 00:57:07 10° N 01:00:49 44° ENE 01:04:12 12° SSE
NOSS 8 (H) 4.5 01:00:24 28° S 01:01:38 47° SE 01:04:31 10° NE
FALCON 9 DEB 3.0 00:59:08 10° WNW 01:02:16 74° N 01:05:23 10° E
Helios 1A 2.9 01:00:06 19° SSE 01:03:04 83° WSW 01:07:18 10° NNW
Cosmos 468 Rocket 4.0 01:00:57 20° SSW 01:04:34 82° ESE 01:09:51 10° NNE
FALCON 9 DEB 2.9 01:02:37 10° WNW 01:05:44 78° N 01:08:51 10° E
SL-16 R/B 2.9 01:00:54 10° SSE 01:07:00 64° ENE 01:13:07 10° NNW
Cosmos 372 Rocket 4.2 01:01:51 10° NNW 01:07:07 72° ENE 01:12:22 10° SSE
Cosmos 858 Rocket 4.5 01:04:13 10° NNW 01:09:30 74° WSW 01:14:05 14° SSE
USA 290 4.4 01:11:15 11° SE 01:13:11 17° ESE 01:15:21 10° ENE
Lacrosse 4 Rocket 1.9 01:09:15 10° NNW 01:13:21 59° NE 01:17:21 10° SE
Cosmos 1953 Rocket 3.8 01:10:29 20° SSW 01:13:23 62° WNW 01:17:47 10° N
CENTAUR R/B 4.4 01:09:23 10° NW 01:16:30 43° NNE 01:24:36 10° E
Cosmos 2098 Rocket 3.5 01:15:08 16° S 01:19:20 69° E 01:23:37 10° NNE
Cosmos 1763 Rocket 3.5 01:15:44 18° SSW 01:19:31 79° WNW 01:24:43 10° NNE
BREEZE-M R/B 4.2 01:18:11 15° SSE 01:19:31 18° SE 01:22:39 10° E
Cosmos 1437 Rocket 2.9 01:16:02 10° NNW 01:19:53 57° W 01:22:18 20° S
Resurs 1-4 Rocket 2.8 01:14:43 10° NNE 01:19:53 48° E 01:24:23 13° S
USA 267 4.3 01:19:19 17° SSW 01:22:31 24° SW 01:27:36 10° WNW
Cosmos 1892 3.9 01:21:02 16° SW 01:23:35 33° WNW 01:27:08 10° N
SL-4 R/B 1.6 01:21:02 10° W 01:24:51 89° S 01:28:24 10° E
NOSS 2-3 (D) 4.0 01:22:26 13° WSW 01:26:15 67° NW 01:31:27 10° NE
Cosmos 1943 Rocket 3.7 01:23:04 10° WNW 01:26:51 19° W 01:29:31 14° SW
Cosmos 1842 Rocket 3.6 01:25:39 10° NNW 01:29:57 63° W 01:33:14 17° S
NPP 4.3 01:25:50 10° NNE 01:31:04 48° E 01:35:57 12° S
ADEOS II 3.5 01:26:43 10° NNE 01:31:22 31° E 01:35:59 10° SSE
EO 1 Del DPAF 4.4 01:28:57 10° N 01:32:17 31° WNW 01:34:57 14° SW
Meteor 2-8 Rocket 4.5 01:27:10 10° NNW 01:33:18 73° W 01:38:54 13° S
Lacrosse 5 rocket 2.3 01:30:04 10° WNW 01:33:32 44° NNE 01:37:01 10° E
USA 306 4.1 01:32:05 17° S 01:34:20 26° SE 01:37:53 10° E
FALCON 9 DEB 3.4 01:31:50 10° W 01:35:05 43° SSW 01:38:19 10° SE
Cosmos 921 Rocket 3.3 01:32:38 17° S 01:35:45 59° ESE 01:39:53 10° NNE
Exosat Rocket 3.9 01:30:27 15° SW 01:35:47 74° WNW 01:40:56 10° NNE
Cosmos 1943 3.2 01:33:25 16° SSW 01:37:58 90° WNW 01:43:41 10° NNE
CZ-2D R/B 2.3 01:33:29 10° NNE 01:38:41 65° ESE 01:43:15 13° S
MOZ.5/SAFIR/RUBIN 5/SL-8 4.2 01:38:06 16° SSW 01:41:39 47° W 01:46:17 10° NNW
NOSS 2-3 (C) 4.4 01:38:59 10° WSW 01:43:13 53° NW 01:48:27 10° NE
IDEFIX/ARIANE 42P 4.5 01:41:27 10° NE 01:45:38 23° E 01:49:46 10° SE
Cosmos 1603 3.8 01:41:52 15° SW 01:46:42 78° WNW 01:52:23 10° NNE
Cosmos 2151 3.6 01:44:56 11° S 01:48:51 50° E 01:52:56 10° NNE
Cosmos 1825 3.2 01:47:48 15° SW 01:50:28 33° WNW 01:53:56 10° N
AQUA 4.3 01:46:02 10° NNE 01:50:45 55° E 01:55:17 11° S
Cosmos 1076 Rocket 3.5 01:49:45 15° S 01:53:16 88° W 01:57:32 10° N
Cosmos 1437 2.5 01:51:06 10° NNW 01:53:52 56° W 01:55:51 17° S
Cosmos 1242 Rocket 3.3 01:54:12 10° NNW 01:57:32 36° W 02:00:05 15° SSW
Cosmos 540 Rocket 3.6 01:55:00 14° SW 01:59:23 67° WNW 02:04:31 10° NNE
Cosmos 405 Rocket 4.2 01:58:43 11° WSW 02:01:32 24° WNW 02:04:35 10° N
Cosmos 2221 3.6 01:58:23 10° NNW 02:02:08 30° W 02:05:13 13° SW
X-37B 1.9 02:01:04 14° SW 02:02:49 22° S 02:05:20 10° SE
Cosmos 2058 3.9 02:00:33 13° SW 02:03:45 35° WNW 02:07:33 10° N
BREEZE-M DEB (TANK) 1.5 02:02:44 10° W 02:05:22 45° S 02:07:35 10° ESE
IRS-1D 4.4 02:00:33 10° NNE 02:05:29 44° E 02:10:17 10° S
Cosmos 841 Rocket 3.7 02:03:07 13° SW 02:07:42 66° WNW 02:12:51 10° NNE
Cosmos 1553 Rocket 4.2 02:02:30 10° N 02:08:52 76° ENE 02:15:05 10° SSE
SL-16 R/B 4.0 02:04:33 10° W 02:09:08 24° NW 02:13:45 10° NNE
NOSS 2-2 (E) 3.2 02:08:02 14° SSW 02:10:54 64° SE 02:14:48 10° NE
CREW DRAGON DEMO-1 DEB 2.1 02:10:19 10° WSW 02:12:45 79° S 02:15:12 10° E
Cosmos 2292 Rocket 3.6 02:10:10 10° SSE 02:13:00 43° E 02:15:54 10° NNE
FALCON 9 DEB 2.8 02:11:01 10° WNW 02:14:08 62° SSW 02:17:13 10° ESE
Cosmos 1782 3.3 02:11:36 10° N 02:15:35 63° ENE 02:19:33 10° SSE
Cosmos 2369 Rocket 3.9 02:14:07 10° WNW 02:17:23 16° W 02:20:37 10° SW
Cosmos 1271 Rocket 3.8 02:13:50 10° N 02:17:28 45° ENE 02:21:05 10° SSE
USA 229 DEB 4.2 02:11:16 10° WSW 02:17:42 56° NNW 02:24:39 10° NE
USA 229 4.2 02:11:22 10° WSW 02:17:48 56° NNW 02:24:46 10° NE
USA 307 3.4 02:14:12 12° SW 02:17:50 44° SSE 02:21:53 10° ENE
USA 281 3.5 02:12:57 10° SE 02:19:30 77° ENE 02:26:06 10° NNW
Cosmos 2026 Rocket 4.1 02:16:03 10° SSW 02:22:19 76° WNW 02:28:43 10° N
Aureole 3 Rocket 3.9 02:20:27 10° NNW 02:23:55 33° W 02:28:25 10° SSW
NOSS 2-2 (C) 3.2 02:21:26 12° SSW 02:24:34 67° SE 02:28:25 10° NE
Helios 1B rocket 2.7 02:22:23 10° N 02:26:26 59° WNW 02:30:26 10° SSW
CZ-4C R/B 3.7 02:23:12 10° SSE 02:26:35 56° ENE 02:30:01 10° N
ERBS 4.4 02:25:16 10° S 02:27:19 16° SE 02:29:23 10° E
USA 215 4.0 02:22:34 10° ENE 02:28:57 58° N 02:35:20 10° WNW
Cosmos 1328 Rocket 4.0 02:25:13 10° N 02:29:34 63° ENE 02:33:54 10° SSE
NOSS 3-2 (A) 4.3 02:22:20 10° NW 02:29:35 78° NE 02:37:59 10° SE
Cosmos 1633 3.4 02:27:25 11° SW 02:30:32 36° WNW 02:33:51 10° N
FALCON 9 DEB 3.2 02:28:03 10° W 02:31:00 40° SSW 02:33:54 10° SE
SL-19 R/B 4.2 02:25:46 10° NNE 02:31:02 80° WNW 02:36:27 10° SSW
Cosmos 2298 Rocket 4.2 02:27:08 10° NNW 02:32:21 56° WSW 02:37:33 10° S
ATLAS 5 CENTAUR R/B 1.5 02:29:34 10° SW 02:33:31 78° SE 02:38:07 10° NE
USA 308 3.2 02:29:34 10° SW 02:33:43 53° SSE 02:37:52 10° ENE
SeaSat 1 3.9 02:30:41 10° NE 02:35:04 31° ESE 02:39:25 10° S
Cosmos 1606 4.4 02:33:30 10° NW 02:36:12 19° W 02:38:53 10° SW
Cosmos 1814 Rocket 4.3 02:32:12 10° SW 02:37:19 57° WNW 02:42:25 10° NNE
NOSS 3-1 (A) 4.3 02:31:52 10° WSW 02:37:25 47° NNW 02:44:03 10° NE
FALCON 9 DEB 3.2 02:34:53 10° W 02:37:54 43° SSW 02:40:52 10° SE
FALCON 9 DEB 3.4 02:38:20 10° W 02:41:14 36° SSW 02:44:07 10° SE
ADEOS Rocket 3.5 02:35:26 10° S 02:42:32 57° W 02:48:58 10° NNW
Cosmos 1933 4.0 02:38:54 10° NNW 02:42:46 40° W 02:46:36 10° SSW
Cosmos 1980 Rocket 4.5 02:38:06 10° NNW 02:43:02 30° NE 02:47:56 10° ESE
IRIDIUM 104 4.4 02:37:57 10° N 02:43:09 69° W 02:48:20 10° S
Cosmos 2150 Rocket 4.3 02:38:53 10° NW 02:43:52 48° WSW 02:48:54 10° S
USA 290 3.1 02:44:18 10° SW 02:47:20 37° WNW 02:50:23 10° NNE
Meteor 1-28 Rocket 3.6 02:47:17 10° S 02:50:58 47° W 02:54:41 10° NNW
SL-16 R/B 3.5 02:45:47 10° SSW 02:51:03 28° W 02:56:20 10° NW
USA 305 3.0 02:47:15 10° WSW 02:51:29 69° SSE 02:55:43 10° ENE
Lacrosse 4 Rocket 2.7 02:48:37 10° WNW 02:51:38 20° WSW 02:54:36 10° SSW
Cosmos 1125 Rocket 3.8 02:46:42 10° NNW 02:51:47 50° WSW 02:56:52 10° S
DELTA 2 DEB (DPAF) 4.5 02:47:41 10° S 02:51:59 48° W 02:56:20 10° NNW
Cosmos 1151 Rocket 3.1 02:49:00 10° NNW 02:53:14 62° W 02:57:25 10° S
Cosmos 2266 Rocket 4.3 02:51:59 10° S 02:58:02 71° E 03:04:04 10° NNE
